Location: Terra Rouge Observatory
(46.0000°N, 62.7500°W)
Time: 05:51:36
(UTC-04:00)

Daily predictions for brighter satellites

Satellite Brightness Start Highest point End
(mag) Time Altitude Azimuth Time Altitude Azimuth Time Altitude Azimuth
SL-16 R/B 3.8 04:15:19 28° SE 04:15:19 28° SE 04:17:59 10° SE
SeaSat 1 4.4 04:15:03 10° NE 04:17:14 25° NE 04:17:14 25° NE
Cosmos 2297 Rocket 3.5 04:23:33 34° NE 04:23:33 34° NE 04:26:44 10° NNE
USA 229 DEB 4.2 04:25:48 53° SSE 04:25:48 53° SSE 04:31:05 10° SSE
USA 229 4.2 04:25:51 53° SSE 04:25:51 53° SSE 04:31:11 10° SSE
Cosmos 2227 Rocket 3.6 04:37:00 30° NNE 04:37:00 30° NNE 04:39:45 10° NNE
ATLAS 2AS CENTAUR R/B 4.4 04:41:15 22° NNW 04:45:04 31° NNE 04:51:54 10° E
ADEOS II 4.2 04:46:28 10° N 04:47:21 15° N 04:47:21 15° N
Cosmos 1725 Rocket 4.0 04:56:03 69° NNW 04:56:03 69° NNW 05:01:38 10° N
Cosmos 1340 Rocket 4.4 04:59:16 31° ENE 04:59:42 32° ENE 05:03:15 10° SE
SL-14 R/B 4.4 05:06:02 44° ESE 05:06:02 44° ESE 05:09:16 10° SSE
USA 234 3.8 05:05:19 10° E 05:11:34 49° NNE 05:14:08 33° NNW
Cosmos 1603 3.9 05:14:09 33° NNW 05:16:43 67° ENE 05:22:20 10° SE
NOSS 3-1 (C) 3.9 05:14:10 38° NW 05:17:32 86° SW 05:25:51 10° SE
Cosmos 2151 3.0 05:22:40 77° NE 05:22:49 79° E 05:27:04 10° SSE
ERBS 4.2 05:26:25 24° SSE 05:26:25 24° SSE 05:28:00 10° SSE
Cosmos 1538 Rocket 4.0 05:32:58 50° NW 05:34:06 63° WSW 05:39:23 10° S
Cosmos 1842 Rocket 4.5 05:37:51 33° NNW 05:37:51 33° NNW 05:40:25 10° N
COSMO-SKYMED 1 2.5 05:34:24 10° S 05:38:42 63° WSW 05:38:53 63° W
Cosmos 923 Rocket 4.1 05:37:41 18° NNW 05:41:38 73° ENE 05:46:52 10° SSE
Ariane Rocket 3.5 05:37:00 10° NNE 05:42:05 63° ESE 05:47:08 10° S
Cosmos 1805 Rocket 4.1 05:37:42 10° N 05:42:05 58° ENE 05:46:24 10° SSE
Cosmos 2233 Rocket 4.0 05:35:58 10° SSW 05:42:06 58° WNW 05:48:20 10° N
CZ-4 R/B 3.7 05:42:11 10° NE 05:45:38 26° E 05:49:07 10° SSE
SL-8 R/B 3.7 05:47:32 47° W 05:48:48 68° SSW 05:53:34 10° ESE
Cosmos 2227 4.2 05:43:37 10° SSW 05:49:13 82° ESE 05:54:53 10° NNE
Genesis I 3.3 05:49:35 52° WSW 05:49:35 52° WSW 05:53:22 10° SSE
Cosmos 1680 Rocket 3.8 05:44:44 12° NNW 05:49:42 67° ENE 05:54:59 10° SSE
SL-16 R/B 3.4 05:57:16 23° WSW 05:57:16 23° WSW 06:00:37 10° SSW
SeaSat 1 3.3 05:52:57 10° N 05:57:03 29° NW 05:57:03 29° NW
Sich 1 3.5 05:58:40 10° N 06:03:02 62° E 06:07:18 10° SSE
Cosmos 2297 Rocket 3.2 06:05:23 24° NW 06:05:39 24° NW 06:10:14 10° N
Cosmos 2034 Rocket 4.1 05:59:39 10° S 06:05:49 78° E 06:12:06 10° N
PAYLOAD A 4.3 06:01:27 10° NNE 06:06:29 65° E 06:11:17 10° S
Nadezhda 4 Rocket 4.4 06:00:11 10° N 06:06:31 67° E 06:12:46 10° SSE
Cosmos 1633 Rocket 3.5 06:03:45 10° N 06:08:05 62° E 06:12:23 10° SSE
Cosmos 968 Rocket 4.0 06:06:47 21° WSW 06:09:46 38° WNW 06:14:42 10° N
Coronas F rocket 1.6 06:14:07 18° N 06:15:44 56° E 06:18:05 10° SSE
Cosmos 1703 3.3 06:13:10 11° NNW 06:16:55 56° W 06:20:46 10° S
Cosmos 2227 Rocket 3.7 06:18:50 17° NW 06:19:06 17° NW 06:22:40 10° N
ATLAS CENTAUR R/B 3.9 06:16:29 14° NNW 06:19:27 28° NNE 06:27:27 10° E
Cosmos 1513 Rocket 4.5 06:13:58 10° SSW 06:20:15 75° W 06:26:40 10° N
Cosmos 389 Rocket 3.2 06:18:11 10° S 06:21:48 58° E 06:25:26 10° NNE
Cosmos 2112 Rocket 4.0 06:19:40 10° NNW 06:25:00 74° WSW 06:30:20 10° SSE
Meteor 1-28 Rocket 4.1 06:21:51 10° SSW 06:25:06 27° W 06:26:20 22° WNW
Cosmos 1092 Rocket 4.4 06:18:55 10° N 06:25:13 67° E 06:31:24 10° SSE
Cosmos 2058 3.8 06:24:24 20° NW 06:26:09 27° W 06:29:39 10° SSW
Cosmos 1626 2.2 06:22:44 10° NNW 06:26:24 55° W 06:30:03 10° S
Meteor 2-12 Rocket 4.5 06:21:34 10° SSW 06:27:35 57° WNW 06:33:40 10° N
NOSS 3-1 (A) 4.4 06:22:15 15° NW 06:28:20 48° WSW 06:36:13 10° S
Cosmos 1271 Rocket 3.5 06:25:20 10° SW 06:28:37 27° WNW 06:31:54 10° NNW
YAOGAN 1 3.4 06:25:09 10° NNE 06:29:25 54° E 06:33:39 10° S
Cosmos 1464 Rocket 4.2 06:29:25 10° SSW 06:35:31 49° WNW 06:41:36 10° N
Cosmos 1340 Rocket 4.1 06:34:58 19° WNW 06:35:58 20° W 06:38:55 10° SW
ATLAS 2AS CENTAUR R/B 3.2 06:29:15 10° NW 06:37:26 78° NE 06:45:05 10° SE
Cosmos 292 Rocket 4.3 06:33:19 11° NW 06:37:34 39° WSW 06:42:00 10° S
Cosmos 1943 3.2 06:32:03 10° NNW 06:37:41 63° WSW 06:43:18 10° S
Cosmos 1184 Rocket 3.3 06:34:54 11° NNW 06:37:53 39° W 06:40:59 10° SSW
Cosmos 2221 3.2 06:35:57 10° SW 06:39:51 32° WNW 06:43:46 10° N
Cosmos 1666 Rocket 3.8 06:36:39 10° NNW 06:40:57 49° W 06:45:16 10° SSW
Cosmos 1484 Rocket 4.0 06:41:38 10° NNE 06:45:33 47° E 06:49:24 10° S
SMAP 3.1 06:41:30 10° NNE 06:46:11 90° NW 06:50:51 10° SSW
CORIOLIS 4.5 06:41:09 10° NNE 06:46:35 74° ESE 06:52:01 10° S
APEX 3.7 06:44:04 10° SSW 06:47:46 55° ESE 06:50:49 10° NE
Cosmos 1356 Rocket 4.3 06:45:34 10° NNW 06:49:05 28° W 06:52:39 10° SSW
SL-12 R/B (Aux Motor) 4.3 06:44:56 10° WSW 06:49:18 75° SSE 06:51:28 10° E
Cosmos 192 4.4 06:45:10 10° NNW 06:50:09 85° ENE 06:55:07 10° SSE
CSL-04 Debris 4.4 06:45:46 10° N 06:51:03 49° WNW 06:56:17 10° SW
Cosmos 1933 Rocket 3.7 06:48:07 10° N 06:52:37 85° E 06:57:02 10° S
Helios 1B rocket 2.4 06:49:39 10° S 06:53:45 73° WSW 06:57:52 10° NNW
USA 234 3.4 06:47:51 10° SE 06:54:24 72° SW 07:00:59 10° NW
SJ-7 4.3 06:52:24 10° N 06:56:24 69° WNW 07:00:25 10° SSW
SPOT 3 Rocket 3.6 06:52:46 10° NNE 06:58:01 90° WNW 07:03:15 10° SSW
COSMOS 2406 4.2 06:52:53 10° NNW 06:58:27 47° ENE 07:03:59 10° SE
Tiangong 2 3.0 06:55:47 10° SW 06:58:30 27° SSE 07:01:15 10° ESE
IRS-1A Rocket 4.5 06:54:49 10° N 07:00:35 55° WNW 07:06:14 10° SW
Cosmos 2263 Rocket 2.2 06:57:39 10° SSW 07:03:20 82° WNW 07:09:05 10° NNE
Cosmos 1655 Rocket 4.4 07:01:23 10° N 07:07:39 70° E 07:13:51 10° SSE
MONITOR-E 4.2 07:08:23 10° N 07:11:34 69° WNW 07:14:42 10° SSW
Cosmos 1470 Rocket 3.7 07:09:23 10° NNW 07:13:35 52° W 07:17:48 10° S
Cosmos 1908 4.0 07:12:01 10° SW 07:15:27 30° WNW 07:18:53 10° N
CZ-2C R/B 2.6 07:11:44 10° N 07:16:02 40° WNW 07:20:18 10° SW
IDEFIX/ARIANE 42P 2.9 07:12:15 10° N 07:17:16 45° WNW 07:22:15 10° SW
